QPF
0.03 0.03 0.03 0.03 0.02 0.01 0.01 0.01 0.00 0.00 0.00 0.00 0.00 0.00 0.00 0.00 0.00 0.00 0.00 0.00 0.00 0.00 0.00 0.00 0.00 0.00 0.00 0.00 0.00 0.00 0.00 0.00 0.00 0.00 0.00 0.00 0.00 0.00 0.00 0.00 0.00 0.00 0.00
0.03 0.04 0.03 0.03 0.02 0.01 0.01 0.00 0.00 0.00 0.00 0.00 0.00 0.00 0.00 0.00 0.00 0.00 0.00 0.00 0.00 0.00 0.00 0.00 0.00 0.00 0.00 0.00 0.00 0.00 0.00 0.00 0.00 0.00 0.00 0.00 0.00 0.00 0.00 0.00 0.00 0.00 0.00
0.04 0.04 0.04 0.03 0.02 0.01 0.01 0.00 0.00 0.00 0.00 0.00 0.00 0.00 0.00 0.00 0.00 0.00 0.00 0.00 0.00 0.00 0.00 0.00 0.00 0.00 0.00 0.00 0.00 0.00 0.00 0.00 0.00 0.00 0.00 0.00 0.00 0.00 0.00 0.00 0.00 0.00 0.00
0.04 0.04 0.03 0.03 0.02 0.01 0.01 0.00 0.00 0.00 0.00 0.00 0.00 0.00 0.00 0.00 0.00 0.00 0.00 0.00 0.00 0.00 0.00 0.00 0.00 0.00 0.00 0.00 0.00 0.00 0.00 0.00 0.00 0.00 0.00 0.00 0.00 0.00 0.00 0.00 0.00 0.00 0.00
0.03 0.04 0.03 0.02 0.02 0.02 0.01 0.00 0.00 0.00 0.00 0.00 0.00 0.00 0.00 0.00 0.00 0.00 0.00 0.00 0.00 0.00 0.00 0.00 0.00 0.00 0.00 0.00 0.00 0.00 0.00 0.00 0.00 0.00 0.00 0.00 0.00 0.00 0.00 0.00 0.00 0.00 0.00
0.02 0.02 0.02 0.02 0.02 0.01 0.01 0.01 0.01 0.00 0.00 0.00 0.00 0.00 0.00 0.00 0.00 0.00 0.00 0.00 0.00 0.00 0.00 0.00 0.00 0.00 0.00 0.00 0.00 0.00 0.00 0.00 0.00 0.00 0.00 0.00 0.00 0.00 0.00 0.00 0.00 0.00 0.00
0.02 0.02 0.02 0.02 0.01 0.01 0.01 0.00 0.00 0.01 0.00 0.00 0.00 0.00 0.00 0.00 0.00 0.00 0.00 0.00 0.00 0.00 0.00 0.00 0.00 0.00 0.00 0.00 0.00 0.00 0.00 0.00 0.00 0.00 0.00 0.00 0.00 0.00 0.00 0.00 0.00 0.00 0.00
0.03 0.02 0.02 0.02 0.02 0.01 0.01 0.01 0.01 0.00 0.00 0.00 0.00 0.01 0.01 0.01 0.00 0.00 0.00 0.00 0.00 0.00 0.00 0.00 0.00 0.00 0.00 0.00 0.00 0.00 0.00 0.00 0.00 0.00 0.00 0.00 0.00 0.00 0.00 0.00 0.00 0.00 0.00
0.02 0.02 0.02 0.02 0.01 0.01 0.01 0.01 0.01 0.01 0.01 0.01 0.01 0.01 0.01 0.01 0.01 0.01 0.01 0.00 0.00 0.00 0.00 0.00 0.00 0.00 0.00 0.00 0.00 0.00 0.00 0.00 0.00 0.00 0.00 0.00 0.00 0.00 0.00 0.00 0.00 0.00 0.00
0.02 0.02 0.02 0.02 0.02 0.01 0.01 0.01 0.01 0.02 0.02 0.02 0.02 0.02 0.02 0.01 0.01 0.01 0.01 0.00 0.00 0.00 0.00 0.00 0.00 0.00 0.00 0.01 0.00 0.00 0.00 0.00 0.00 0.00 0.00 0.00 0.00 0.00 0.00 0.00 0.00 0.00 0.00
0.06 0.05 0.04 0.03 0.02 0.02 0.02 0.02 0.02 0.03 0.05 0.05 0.04 0.03 0.02 0.02 0.02 0.02 0.01 0.01 0.01 0.01 0.01 0.01 0.01 0.01 0.01 0.01 0.01 0.00 0.00 0.01 0.00 0.00 0.00 0.00 0.00 0.00 0.00 0.00 0.00 0.00 0.00
0.11 0.09 0.08 0.07 0.07 0.05 0.04 0.04 0.06 0.07 0.08 0.06 0.04 0.03 0.02 0.02 0.02 0.02 0.03 0.03 0.02 0.02 0.02 0.02 0.02 0.02 0.02 0.01 0.01 0.01 0.01 0.01 0.00 0.00 0.00 0.00 0.00 0.00 0.00 0.00 0.00 0.00 0.00
0.14 0.16 0.16 0.16 0.17 0.12 0.09 0.07 0.07 0.06 0.04 0.03 0.02 0.02 0.02 0.02 0.02 0.03 0.03 0.03 0.03 0.02 0.01 0.01 0.01 0.01 0.01 0.01 0.01 0.01 0.01 0.01 0.01 0.00 0.00 0.00 0.00 0.00 0.00 0.00 0.00 0.00 0.00
0.09 0.11 0.15 0.18 0.17 0.15 0.12 0.09 0.07 0.06 0.05 0.04 0.03 0.02 0.02 0.02 0.02 0.02 0.03 0.03 0.02 0.02 0.01 0.01 0.02 0.02 0.02 0.01 0.01 0.01 0.01 0.01 0.01 0.00 0.00 0.00 0.00 0.00 0.00 0.00 0.00 0.00 0.00
0.09 0.11 0.16 0.18 0.19 0.18 0.13 0.10 0.10 0.10 0.09 0.07 0.06 0.06 0.05 0.04 0.04 0.04 0.04 0.03 0.03 0.03 0.02 0.02 0.02 0.01 0.01 0.01 0.01 0.01 0.01 0.01 0.00 0.00 0.00 0.00 0.00 0.00 0.00 0.00 0.00 0.00 0.00
0.10 0.13 0.16 0.16 0.16 0.16 0.14 0.14 0.14 0.12 0.13 0.13 0.13 0.13 0.12 0.11 0.10 0.08 0.06 0.05 0.04 0.04 0.02 0.02 0.01 0.02 0.02 0.02 0.01 0.01 0.01 0.01 0.00 0.00 0.00 0.00 0.00 0.00 0.00 0.00 0.00 0.00 0.00
0.09 0.11 0.12 0.12 0.11 0.10 0.11 0.12 0.14 0.16 0.15 0.14 0.13 0.13 0.13 0.12 0.12 0.10 0.09 0.08 0.06 0.05 0.03 0.02 0.03 0.03 0.03 0.03 0.02 0.01 0.01 0.00 0.00 0.00 0.00 0.00 0.00 0.00 0.00 0.00 0.00 0.00 0.00
0.08 0.09 0.09 0.09 0.09 0.10 0.11 0.12 0.13 0.14 0.14 0.13 0.14 0.14 0.13 0.13 0.12 0.11 0.10 0.08 0.07 0.06 0.06 0.05 0.05 0.05 0.05 0.03 0.02 0.01 0.01 0.00 0.00 0.00 0.00 0.00 0.00 0.00 0.00 0.00 0.00 0.01 0.01
0.08 0.09 0.11 0.11 0.12 0.13 0.13 0.13 0.13 0.12 0.12 0.11 0.09 0.08 0.08 0.09 0.09 0.09 0.08 0.07 0.07 0.08 0.08 0.07 0.05 0.04 0.03 0.02 0.01 0.01 0.01 0.00 0.00 0.00 0.00 0.00 0.00 0.01 0.01 0.01 0.01 0.01 0.01
0.09 0.11 0.13 0.12 0.12 0.13 0.13 0.13 0.15 0.14 0.12 0.10 0.08 0.07 0.06 0.06 0.05 0.06 0.06 0.06 0.06 0.06 0.05 0.04 0.03 0.02 0.02 0.01 0.01 0.01 0.01 0.01 0.01 0.01 0.01 0.00 0.01 0.01 0.01 0.01 0.01 0.01 0.01
0.07 0.09 0.10 0.11 0.11 0.11 0.12 0.12 0.13 0.13 0.10 0.07 0.06 0.06 0.06 0.05 0.05 0.05 0.05 0.05 0.05 0.05 0.05 0.05 0.04 0.03 0.02 0.02 0.02 0.02 0.01 0.01 0.01 0.00 0.01 0.01 0.01 0.01 0.01 0.01 0.01 0.01 0.01
0.10 0.11 0.11 0.13 0.13 0.13 0.12 0.11 0.09 0.08 0.08 0.08 0.08 0.08 0.07 0.06 0.06 0.05 0.05 0.04 0.04 0.04 0.03 0.03 0.02 0.02 0.02 0.02 0.02 0.01 0.01 0.01 0.01 0.01 0.01 0.01 0.01 0.01 0.01 0.01 0.01 0.01 0.01
0.10 0.11 0.12 0.12 0.13 0.13 0.11 0.09 0.08 0.07 0.06 0.05 0.05 0.04 0.04 0.04 0.04 0.04 0.03 0.02 0.01 0.01 0.01 0.02 0.02 0.01 0.01 0.01 0.01 0.01 0.01 0.00 0.00 0.01 0.01 0.01 0.01 0.01 0.01 0.02 0.02 0.02 0.02
0.05 0.06 0.08 0.09 0.09 0.08 0.08 0.07 0.06 0.05 0.04 0.04 0.04 0.03 0.03 0.02 0.02 0.01 0.01 0.01 0.00 0.00 0.00 0.01 0.01 0.01 0.01 0.00 0.00 0.00 0.00 0.00 0.00 0.01 0.01 0.01 0.01 0.01 0.02 0.02 0.02 0.02 0.02
0.02 0.02 0.03 0.03 0.03 0.03 0.03 0.03 0.03 0.02 0.02 0.02 0.02 0.02 0.01 0.01 0.01 0.01 0.01 0.01 0.01 0.01 0.01 0.01 0.01 0.01 0.01 0.00 0.00 0.00 0.00 0.00 0.01 0.01 0.01 0.00 0.01 0.01 0.02 0.02 0.03 0.03 0.03
0.01 0.00 0.00 0.00 0.01 0.01 0.01 0.02 0.02 0.02 0.02 0.01 0.01 0.01 0.01 0.01 0.01 0.01 0.01 0.01 0.01 0.01 0.01 0.00 0.00 0.00 0.00 0.01 0.01 0.01 0.01 0.01 0.01 0.01 0.00 0.00 0.01 0.01 0.02 0.03 0.03 0.05 0.06
MSLP
1014.44 1014.97 1015.53 1016.10 1016.63 1017.09 1017.48 1017.79 1018.04 1018.25 1018.45 1018.64 1018.83 1019.04 1019.26 1019.47 1019.67 1019.86 1020.04 1020.20 1020.34 1020.48 1020.61 1020.74 1020.86 1020.99 1021.13 1021.26 1021.41 1021.55 1021.68 1021.80 1021.89 1021.94 1021.93 1021.86 1021.73 1021.54 1021.31 1021.06 1020.82 1020.61 1020.44
1014.42 1014.93 1015.47 1016.01 1016.52 1016.97 1017.35 1017.65 1017.90 1018.11 1018.29 1018.48 1018.67 1018.88 1019.10 1019.33 1019.56 1019.78 1019.99 1020.18 1020.34 1020.49 1020.61 1020.71 1020.81 1020.90 1021.00 1021.11 1021.24 1021.38 1021.54 1021.70 1021.84 1021.94 1021.98 1021.96 1021.86 1021.69 1021.47 1021.21 1020.95 1020.70 1020.49
1014.36 1014.85 1015.37 1015.89 1016.38 1016.81 1017.18 1017.48 1017.72 1017.93 1018.11 1018.29 1018.48 1018.68 1018.91 1019.15 1019.39 1019.64 1019.87 1020.08 1020.26 1020.41 1020.52 1020.61 1020.68 1020.74 1020.81 1020.90 1021.02 1021.16 1021.33 1021.52 1021.69 1021.84 1021.93 1021.96 1021.90 1021.78 1021.58 1021.34 1021.08 1020.82 1020.58
1014.20 1014.69 1015.20 1015.70 1016.16 1016.58 1016.94 1017.24 1017.49 1017.69 1017.88 1018.06 1018.25 1018.45 1018.67 1018.91 1019.16 1019.42 1019.66 1019.88 1020.07 1020.22 1020.34 1020.42 1020.48 1020.53 1020.58 1020.65 1020.75 1020.89 1021.06 1021.25 1021.45 1021.62 1021.75 1021.82 1021.82 1021.74 1021.59 1021.38 1021.14 1020.88 1020.63
1013.90 1014.40 1014.90 1015.39 1015.84 1016.24 1016.60 1016.90 1017.16 1017.38 1017.58 1017.77 1017.96 1018.16 1018.38 1018.61 1018.86 1019.10 1019.34 1019.57 1019.77 1019.93 1020.05 1020.14 1020.20 1020.25 1020.29 1020.36 1020.44 1020.57 1020.72 1020.91 1021.10 1021.28 1021.43 1021.53 1021.56 1021.52 1021.41 1021.25 1021.04 1020.81 1020.55
1013.42 1013.94 1014.45 1014.93 1015.37 1015.78 1016.14 1016.46 1016.74 1016.98 1017.21 1017.41 1017.61 1017.81 1018.02 1018.24 1018.47 1018.70 1018.93 1019.15 1019.35 1019.52 1019.66 1019.76 1019.84 1019.90 1019.95 1020.00 1020.08 1020.19 1020.32 1020.48 1020.65 1020.81 1020.95 1021.05 1021.10 1021.09 1021.02 1020.89 1020.72 1020.51 1020.28
1012.77 1013.32 1013.84 1014.32 1014.77 1015.18 1015.56 1015.91 1016.22 1016.50 1016.76 1016.99 1017.20 1017.41 1017.61 1017.81 1018.01 1018.22 1018.43 1018.64 1018.83 1019.01 1019.16 1019.29 1019.39 1019.46 1019.53 1019.59 1019.66 1019.74 1019.84 1019.96 1020.09 1020.22 1020.33 1020.41 1020.45 1020.45 1020.40 1020.31 1020.17 1019.99 1019.78
1011.97 1012.54 1013.08 1013.58 1014.04 1014.48 1014.89 1015.27 1015.63 1015.95 1016.25 1016.51 1016.75 1016.95 1017.15 1017.33 1017.50 1017.68 1017.86 1018.05 1018.23 1018.41 1018.58 1018.72 1018.84 1018.94 1019.02 1019.09 1019.15 1019.22 1019.29 1019.37 1019.44 1019.52 1019.59 1019.63 1019.65 1019.64 1019.60 1019.52 1019.41 1019.26 1019.07
1011.06 1011.66 1012.22 1012.74 1013.23 1013.69 1014.15 1014.58 1014.99 1015.36 1015.70 1016.00 1016.26 1016.47 1016.66 1016.81 1016.96 1017.10 1017.26 1017.41 1017.58 1017.75 1017.92 1018.08 1018.22 1018.34 1018.44 1018.52 1018.58 1018.63 1018.67 1018.71 1018.74 1018.76 1018.78 1018.78 1018.77 1018.74 1018.68 1018.61 1018.51 1018.39 1018.23
1010.11 1010.74 1011.31 1011.85 1012.37 1012.88 1013.38 1013.86 1014.32 1014.75 1015.14 1015.48 1015.75 1015.97 1016.15 1016.29 1016.40 1016.52 1016.63 1016.76 1016.90 1017.06 1017.22 1017.38 1017.54 1017.67 1017.78 1017.87 1017.93 1017.97 1018.00 1018.00 1018.00 1017.98 1017.95 1017.91 1017.86 1017.81 1017.74 1017.66 1017.57 1017.46 1017.33
1009.18 1009.81 1010.40 1010.97 1011.52 1012.06 1012.61 1013.14 1013.66 1014.14 1014.56 1014.93 1015.23 1015.46 1015.62 1015.75 1015.84 1015.92 1016.01 1016.11 1016.23 1016.36 1016.51 1016.67 1016.82 1016.96 1017.07 1017.17 1017.23 1017.26 1017.28 1017.26 1017.23 1017.19 1017.13 1017.06 1016.99 1016.90 1016.82 1016.73 1016.64 1016.54 1016.43
1008.31 1008.93 1009.53 1010.11 1010.68 1011.27 1011.85 1012.43 1012.99 1013.51 1013.97 1014.36 1014.68 1014.91 1015.08 1015.19 1015.27 1015.33 1015.40 1015.47 1015.57 1015.69 1015.82 1015.96 1016.10 1016.23 1016.34 1016.42 1016.48 1016.51 1016.52 1016.50 1016.46 1016.40 1016.33 1016.24 1016.15 1016.05 1015.95 1015.85 1015.75 1015.65 1015.54
1007.53 1008.13 1008.72 1009.30 1009.90 1010.51 1011.13 1011.74 1012.33 1012.87 1013.36 1013.76 1014.08 1014.33 1014.49 1014.61 1014.68 1014.74 1014.80 1014.86 1014.95 1015.05 1015.16 1015.28 1015.40 1015.50 1015.59 1015.66 1015.71 1015.73 1015.73 1015.70 1015.66 1015.60 1015.53 1015.44 1015.34 1015.23 1015.12 1015.00 1014.89 1014.77 1014.66
1006.88 1007.44 1008.00 1008.58 1009.18 1009.81 1010.45 1011.07 1011.68 1012.23 1012.72 1013.13 1013.45 1013.70 1013.87 1013.99 1014.08 1014.15 1014.21 1014.28 1014.36 1014.45 1014.55 1014.65 1014.73 1014.81 1014.86 1014.90 1014.92 1014.92 1014.91 1014.89 1014.84 1014.79 1014.72 1014.63 1014.53 1014.41 1014.29 1014.15 1014.02 1013.88 1013.74
1006.38 1006.88 1007.42 1007.98 1008.57 1009.20 1009.83 1010.46 1011.05 1011.60 1012.07 1012.47 1012.79 1013.03 1013.22 1013.35 1013.46 1013.56 1013.65 1013.74 1013.83 1013.92 1014.01 1014.08 1014.13 1014.17 1014.18 1014.18 1014.16 1014.13 1014.09 1014.05 1014.01 1013.95 1013.89 1013.80 1013.70 1013.58 1013.44 1013.28 1013.11 1012.94 1012.77
1006.07 1006.52 1007.00 1007.54 1008.11 1008.71 1009.33 1009.93 1010.49 1011.01 1011.45 1011.83 1012.13 1012.37 1012.56 1012.72 1012.86 1012.99 1013.11 1013.24 1013.35 1013.46 1013.54 1013.59 1013.61 1013.60 1013.56 1013.51 1013.44 1013.37 1013.30 1013.24 1013.18 1013.12 1013.05 1012.96 1012.85 1012.72 1012.56 1012.38 1012.17 1011.96 1011.74
1006.00 1006.38 1006.81 1007.30 1007.84 1008.41 1008.98 1009.53 1010.05 1010.51 1010.91 1011.25 1011.52 1011.75 1011.95 1012.13 1012.30 1012.48 1012.65 1012.81 1012.96 1013.08 1013.16 1013.20 1013.18 1013.13 1013.04 1012.93 1012.80 1012.68 1012.57 1012.48 1012.39 1012.32 1012.24 1012.15 1012.03 1011.89 1011.71 1011.49 1011.25 1010.99 1010.72
1006.18 1006.50 1006.88 1007.32 1007.80 1008.31 1008.83 1009.32 1009.77 1010.17 1010.51 1010.79 1011.04 1011.25 1011.45 1011.65 1011.85 1012.06 1012.28 1012.48 1012.66 1012.79 1012.88 1012.90 1012.86 1012.76 1012.62 1012.46 1012.28 1012.11 1011.96 1011.82 1011.72 1011.62 1011.53 1011.43 1011.30 1011.14 1010.94 1010.69 1010.41 1010.11 1009.79
1006.64 1006.89 1007.21 1007.60 1008.02 1008.46 1008.91 1009.32 1009.69 1010.02 1010.29 1010.52 1010.73 1010.92 1011.12 1011.33 1011.55 1011.80 1012.04 1012.27 1012.47 1012.62 1012.70 1012.71 1012.64 1012.51 1012.33 1012.11 1011.89 1011.68 1011.49 1011.33 1011.19 1011.08 1010.98 1010.87 1010.73 1010.55 1010.33 1010.06 1009.75 1009.41 1009.04
1007.34 1007.54 1007.81 1008.13 1008.48 1008.85 1009.21 1009.54 1009.84 1010.08 1010.29 1010.47 1010.64 1010.81 1010.99 1011.21 1011.45 1011.70 1011.97 1012.21 1012.42 1012.56 1012.63 1012.62 1012.53 1012.36 1012.15 1011.90 1011.64 1011.39 1011.18 1011.00 1010.86 1010.73 1010.63 1010.51 1010.36 1010.18 1009.94 1009.65 1009.31 1008.93 1008.53
1008.24 1008.39 1008.61 1008.86 1009.15 1009.44 1009.72 1009.97 1010.19 1010.37 1010.52 1010.65 1010.78 1010.93 1011.11 1011.31 1011.55 1011.80 1012.06 1012.30 1012.49 1012.61 1012.66 1012.61 1012.49 1012.29 1012.05 1011.78 1011.50 1011.24 1011.02 1010.84 1010.69 1010.57 1010.46 1010.34 1010.20 1010.00 1009.75 1009.44 1009.08 1008.67 1008.23
1009.25 1009.36 1009.52 1009.72 1009.94 1010.16 1010.37 1010.56 1010.71 1010.84 1010.95 1011.05 1011.16 1011.28 1011.44 1011.64 1011.86 1012.09 1012.31 1012.51 1012.66 1012.74 1012.74 1012.66 1012.49 1012.27 1012.00 1011.71 1011.43 1011.17 1010.96 1010.78 1010.65 1010.54 1010.44 1010.33 1010.18 1009.98 1009.72 1009.39 1008.99 1008.55 1008.07
1010.27 1010.36 1010.48 1010.63 1010.80 1010.96 1011.12 1011.25 1011.36 1011.46 1011.54 1011.62 1011.72 1011.84 1011.98 1012.15 1012.33 1012.52 1012.69 1012.83 1012.91 1012.92 1012.86 1012.71 1012.50 1012.24 1011.95 1011.65 1011.37 1011.12 1010.92 1010.76 1010.64 1010.55 1010.46 1010.35 1010.20 1009.99 1009.71 1009.35 1008.92 1008.44 1007.91
1011.21 1011.29 1011.39 1011.51 1011.64 1011.77 1011.89 1012.00 1012.09 1012.17 1012.25 1012.33 1012.42 1012.53 1012.65 1012.79 1012.93 1013.05 1013.15 1013.20 1013.19 1013.11 1012.96 1012.74 1012.46 1012.15 1011.83 1011.52 1011.24 1011.00 1010.81 1010.68 1010.57 1010.49 1010.41 1010.29 1010.13 1009.90 1009.59 1009.19 1008.72 1008.18 1007.59
1012.04 1012.12 1012.21 1012.32 1012.44 1012.55 1012.66 1012.76 1012.86 1012.94 1013.03 1013.11 1013.20 1013.30 1013.40 1013.50 1013.57 1013.62 1013.63 1013.57 1013.45 1013.26 1013.01 1012.70 1012.35 1011.98 1011.62 1011.29 1011.00 1010.77 1010.58 1010.45 1010.36 1010.27 1010.18 1010.05 1009.86 1009.59 1009.24 1008.80 1008.27 1007.68 1007.02
1012.74 1012.84 1012.95 1013.07 1013.19 1013.31 1013.42 1013.53 1013.63 1013.73 1013.83 1013.92 1014.01 1014.10 1014.16 1014.21 1014.21 1014.17 1014.07 1013.90 1013.65 1013.35 1012.98 1012.57 1012.14 1011.71 1011.30 1010.94 1010.63 1010.38 1010.19 1010.05 1009.94 1009.84 1009.72 1009.56 1009.33 1009.02 1008.62 1008.12 1007.54 1006.88 1006.16
Thickness
5721 5720 5718 5717 5716 5715 5714 5713 5711 5710 5708 5706 5704 5702 5700 5699 5697 5695 5694 5692 5691 5689 5687 5685 5683 5681 5679 5676 5674 5672 5669 5666 5664 5663 5661 5662 5662 5662 5662 5662 5661 5661 5661
5722 5720 5719 5717 5716 5714 5713 5712 5711 5709 5707 5705 5703 5701 5699 5697 5695 5694 5692 5690 5689 5686 5684 5682 5680 5678 5676 5673 5671 5669 5666 5663 5661 5659 5658 5658 5658 5657 5657 5657 5657 5657 5657
5722 5720 5718 5716 5715 5714 5713 5711 5709 5707 5705 5703 5701 5699 5698 5696 5694 5692 5691 5689 5687 5685 5682 5680 5678 5675 5673 5670 5668 5666 5663 5661 5657 5655 5654 5653 5652 5652 5652 5652 5652 5652 5652
5722 5719 5718 5716 5715 5714 5713 5710 5708 5706 5704 5702 5700 5698 5697 5695 5693 5691 5689 5686 5684 5682 5680 5678 5676 5673 5671 5668 5666 5663 5660 5657 5654 5651 5650 5648 5647 5647 5645 5645 5646 5647 5647
5723 5720 5719 5717 5715 5713 5711 5709 5707 5705 5703 5701 5699 5696 5695 5693 5692 5689 5687 5684 5681 5679 5677 5675 5673 5671 5669 5666 5664 5661 5657 5654 5651 5648 5646 5644 5643 5642 5641 5640 5640 5640 5641
5725 5722 5720 5717 5714 5712 5710 5708 5705 5703 5701 5699 5697 5695 5693 5692 5691 5688 5685 5682 5679 5676 5674 5672 5670 5668 5666 5664 5662 5659 5656 5652 5649 5645 5643 5641 5640 5638 5636 5635 5633 5632 5634
5726 5723 5720 5717 5714 5712 5710 5706 5704 5702 5699 5697 5695 5693 5691 5690 5688 5685 5683 5679 5676 5674 5672 5669 5668 5667 5664 5661 5659 5656 5653 5650 5647 5643 5641 5639 5637 5635 5632 5630 5628 5626 5627
5727 5724 5721 5718 5715 5712 5709 5706 5704 5701 5698 5696 5694 5692 5689 5687 5685 5682 5679 5676 5673 5671 5669 5666 5664 5662 5660 5657 5654 5652 5650 5647 5644 5640 5638 5637 5634 5631 5627 5625 5623 5621 5622
5728 5725 5723 5720 5716 5712 5708 5706 5703 5700 5696 5694 5692 5689 5686 5685 5683 5680 5676 5672 5669 5667 5665 5663 5661 5658 5656 5652 5649 5647 5645 5644 5641 5638 5635 5632 5630 5627 5622 5618 5616 5614 5617
5731 5729 5725 5721 5717 5713 5710 5706 5703 5699 5696 5693 5689 5687 5685 5683 5681 5677 5673 5669 5666 5664 5662 5660 5657 5655 5652 5648 5644 5642 5639 5639 5635 5633 5629 5627 5624 5621 5617 5613 5611 5608 5609
5734 5729 5725 5721 5717 5714 5709 5705 5701 5697 5693 5690 5687 5685 5682 5680 5678 5674 5670 5666 5664 5661 5659 5657 5655 5651 5648 5644 5640 5637 5635 5632 5628 5624 5622 5620 5618 5615 5612 5608 5605 5602 5601
5732 5728 5724 5720 5716 5712 5706 5702 5698 5694 5690 5686 5683 5681 5680 5677 5674 5671 5667 5663 5661 5657 5656 5653 5650 5646 5642 5638 5634 5632 5628 5623 5619 5616 5614 5613 5611 5609 5607 5603 5599 5595 5594
5729 5725 5722 5718 5713 5709 5704 5699 5694 5690 5687 5683 5679 5677 5675 5673 5670 5667 5663 5660 5656 5652 5650 5647 5642 5638 5634 5630 5627 5624 5620 5615 5612 5609 5608 5607 5604 5601 5597 5594 5592 5588 5587
5725 5722 5719 5714 5708 5704 5701 5697 5692 5688 5684 5681 5676 5673 5671 5667 5664 5661 5658 5654 5650 5646 5642 5639 5634 5630 5626 5623 5619 5616 5612 5608 5604 5601 5599 5597 5593 5590 5587 5584 5582 5580 5578
5720 5717 5713 5709 5704 5699 5696 5693 5690 5688 5685 5680 5676 5672 5667 5663 5661 5657 5653 5649 5645 5640 5635 5629 5625 5622 5618 5614 5611 5607 5603 5599 5594 5591 5588 5586 5583 5580 5577 5574 5570 5568 5566
5713 5710 5707 5703 5698 5693 5689 5684 5682 5680 5677 5674 5671 5667 5663 5659 5654 5650 5646 5641 5636 5630 5625 5621 5617 5613 5609 5605 5602 5599 5595 5590 5586 5582 5578 5574 5571 5569 5567 5564 5560 5557 5556
5706 5703 5699 5695 5692 5687 5683 5679 5674 5670 5666 5664 5660 5657 5653 5650 5645 5641 5636 5631 5625 5619 5615 5613 5608 5604 5600 5595 5591 5588 5584 5581 5576 5572 5568 5564 5561 5558 5555 5553 5550 5547 5546
5697 5694 5690 5686 5683 5680 5676 5673 5669 5664 5659 5655 5651 5647 5643 5639 5635 5631 5625 5619 5613 5607 5605 5602 5598 5594 5589 5585 5581 5577 5574 5570 5565 5561 5557 5553 5550 5547 5545 5542 5540 5538 5537
5686 5682 5679 5676 5673 5670 5667 5663 5659 5655 5651 5646 5641 5636 5632 5628 5624 5619 5613 5609 5605 5600 5595 5590 5586 5582 5578 5574 5570 5566 5562 5558 5554 5549 5546 5543 5540 5537 5534 5532 5530 5528 5525
5673 5670 5668 5664 5661 5658 5655 5651 5647 5643 5639 5635 5631 5627 5622 5617 5613 5607 5602 5597 5593 5589 5584 5580 5576 5571 5567 5563 5558 5554 5551 5547 5543 5540 5536 5533 5529 5526 5524 5522 5520 5518 5517
5659 5657 5656 5652 5648 5646 5643 5639 5635 5632 5627 5623 5619 5615 5610 5607 5603 5598 5592 5587 5582 5578 5574 5569 5565 5560 5556 5552 5548 5544 5540 5537 5533 5529 5526 5523 5519 5516 5514 5512 5510 5509 5507
5646 5644 5642 5639 5635 5632 5629 5625 5622 5618 5614 5610 5605 5601 5596 5593 5589 5585 5580 5575 5570 5566 5561 5557 5553 5549 5545 5541 5537 5533 5530 5527 5523 5519 5516 5512 5509 5506 5504 5503 5501 5500 5499
5633 5630 5627 5624 5621 5618 5615 5612 5608 5604 5600 5596 5592 5587 5583 5579 5574 5570 5565 5561 5557 5553 5548 5545 5541 5538 5534 5530 5526 5522 5519 5516 5512 5508 5505 5502 5499 5497 5495 5494 5493 5492 5492
5618 5615 5612 5609 5606 5604 5600 5597 5593 5590 5586 5581 5577 5573 5568 5563 5559 5555 5550 5546 5542 5539 5535 5532 5528 5526 5522 5519 5515 5511 5508 5505 5501 5498 5495 5492 5490 5488 5487 5485 5485 5486 5486
5604 5601 5598 5595 5592 5589 5585 5582 5578 5574 5570 5566 5561 5557 5553 5549 5544 5540 5536 5532 5529 5526 5523 5519 5516 5513 5511 5508 5505 5502 5499 5495 5492 5488 5485 5483 5482 5480 5479 5479 5479 5480 5480
5588 5585 5582 5579 5577 5573 5570 5566 5562 5558 5554 5551 5547 5543 5538 5534 5530 5526 5522 5519 5516 5513 5510 5507 5504 5502 5500 5497 5495 5492 5489 5487 5484 5480 5477 5475 5475 5474 5473 5473 5474 5474 5476